Terminal Aerodrome Forecast
Issued by NWS

Home | Current Version | Previous Version | Graphics & Text | Print | Product List | Glossary On
Versions: 1 2 3 4 5 6 7 8 9 10 11 12 13 14 15 16 17 18 19 20 21 22 23 24 25 26 27
000
FTUS45 KGGW 232300
TAFGDV
TAF
KGDV 232320Z 2400/2424 25011KT P6SM SCT250
     FM241200 23010KT P6SM VCSH BKN070 WS020/35035KT
     FM241800 29017G25KT P6SM BKN045 WS020/31045KT
      AMD LTD TO CLD VIS AND WIND=

USA.gov is the U.S. government's official web portal to all federal, state and local government web resources and services.